Flag for USA Weather for the Past 2 Weeks in Avalon (Santa Catalina Island), California, USA

Now
58 °F

Partly sunny.


Feels Like: 56 °F
Forecast: 53 / 64 °F
Wind: 8 mph from West

Location: Catalina Airport

Current Time: Apr 29, 2016 at 1:49:50 PM

Latest Report: Apr 29, 2016 at 12:51 PM


Visibility: 10 mi

Pressure: 30.02 "Hg

Humidity: 72%

Dew Point: 49 °F

Location of Avalon (Santa Catalina Island)Location

Historic Weather in Avalon (Santa Catalina Island) — Graph

°F

Avalon (Santa Catalina Island) Temperature Yesterday

Maximum temperature yesterday: 57 °F (at 12:51 PM)
Minimum temperature yesterday: 47 °F (at 2:51 AM)
Average temperature yesterday: 51 °F

High & Low Weather Summary for the Past Weeks

 TemperatureHumidityPressure
High82 °F (Apr 17, 1:51 PM)100% (Apr 21, 10:51 PM)30.06 "Hg (Apr 21, 10:51 PM)
Low47 °F (Apr 25, 5:51 AM)8% (Apr 18, 8:51 PM)29.76 "Hg (Apr 27, 11:51 PM)
Average61 °F52%29.93 "Hg
* Reported Apr 14 11:51 AM — Apr 29 11:51 AM, Avalon (Santa Catalina Island), Weather by CustomWeather, © 2016

Note: Actual official high and low records may vary slightly from our data, if they occured in-between our weather recording intervals... More about our weather records

Advertising

Avalon (Santa Catalina Island) Weather History for the Previous 24 Hours

Scroll right to see more
 ConditionsComfort  
Time TempWeatherWind HumidityBarometerVisibility
11:51 AM
Fri, Apr 29
60 °FOvercast.5 mph67%30.03 "Hg10 mi
10:51 AM56 °FPartly sunny.8 mph72%30.05 "Hg10 mi
9:51 AM58 °FSunny.6 mph70%30.03 "Hg10 mi
8:51 AM55 °FLow clouds.3 mph87%30.02 "Hg10 mi
7:51 AM51 °FLow clouds.No wind96%30.01 "Hg9 mi
7:03 AM50 °FPassing clouds.No wind100%30.00 "Hg7 mi
5:51 AM48 °FClear.3 mph96%29.98 "Hg7 mi
4:51 AM49 °FClear.3 mph97%29.96 "Hg7 mi
4:00 AM50 °FFog.7 mph96%29.97 "Hg5 mi
3:02 AM50 °FFog.5 mph96%29.97 "Hg5 mi
2:51 AM50 °FFog.6 mph96%29.95 "Hg6 mi
1:51 AM50 °FPassing clouds.7 mph96%29.96 "Hg8 mi
12:51 AM50 °FPassing clouds.8 mph96%29.96 "Hg9 mi
11:51 PM
Thu, Apr 28
50 °FLow clouds.7 mph96%29.96 "Hg7 mi
11:03 PM49 °FFog.6 mph97%29.96 "Hg6 mi
10:04 PM50 °FFog.8 mph96%29.95 "Hg2 mi
8:51 PM50 °FFog.6 mph96%29.93 "Hg3 mi
7:58 PM51 °FFog.13 mph89%29.91 "Hg2 mi
6:51 PM51 °FFog.10 mph86%29.90 "Hg6 mi
5:51 PM53 °FScattered clouds.8 mph83%29.89 "Hg9 mi
4:51 PM57 °FSunny.9 mph64%29.88 "Hg10 mi
3:58 PM55 °FScattered clouds.16 mph74%29.89 "Hg10 mi
2:51 PM57 °FSunny.14 mph69%29.88 "Hg10 mi
1:51 PM57 °FSunny.9 mph64%29.88 "Hg10 mi
Weather by CustomWeather, © 2016

See weather overviewHow to use our weather pages